Regional Weather Roundup
Issued by NWS Charleston, SC

Current Version | Previous Version | Text Only | Print | Product List | Glossary Off
Versions: 1 2 3 4 5 6 7 8 9 10 11 12 13 14 15 16 17 18 19 20 21 22 23 24 25 26 27 28 29 30 31 32 33 34 35 36 37 38 39 40 41 42 43 44 45 46 47 48 49 50

000
ASUS42 KCHS 222227
RWRCHS

Regional Weather Roundup
National Weather Service Charleston SC
600 PM EDT TUE MAY 22 2018

NOTE: "fair" indicates few or no clouds below 12,000 feet with no
significant weather and/or obstructions to visibility.

Not all stations are quality controlled. Use data with caution,
especially dewpoint observations.

SCZ027-030-031-034>040-042>050-222300-
...Southeast South Carolina...

CITY           SKY/WX    TMP DP  RH WIND       PRES   REMARKS
N Charleston   PTSUNNY   82  68  62 S14       30.07F
Waterfront Prk   N/A     79  71  76 S7        29.93F
Mount Pleasant FAIR      81  70  69 S13       30.08F
Johns Island   CLOUDY    81  70  69 S10       30.08F
Pinopolis        N/A     81  72  74 S5        30.01F
Moncks Corner  FAIR      77  72  83 S6        30.07F
Summerville    MOCLDY    79  70  73 S5        30.08S
Beaufort MCAS  FAIR      82  72  71 SE7       30.07F
Beaufort Arpt  MOCLDY    81  70  69 S7        30.07F
Hilton Head Is MOSUNNY   79  70  73 S6G14     30.09S
Walterboro     FAIR      79  68  69 S10       30.07F
Allendale      FAIR      75  73  94 SE5       30.05F

...Southern Midlands and Pee Dee...

CITY           SKY/WX    TMP DP  RH WIND       PRES   REMARKS
Georgetown     MOCLDY    79  72  78 S10       30.09F
Kingstree      CLOUDY    81  68  65 S9        30.07S
Orangeburg     FAIR      75  69  81 S7        30.07F
Barnwell       FAIR      77  72  83 SE6       30.06S
Aiken          FAIR      75  68  78 SE8       30.10R HAZE
Manning        FAIR      72  68  88 CALM      30.07F
Columbia       FAIR      82  70  66 SE14      30.05F
Sumter         PTSUNNY   77  66  69 S16G23    30.05F
Florence       FAIR      82  65  56 S14       30.07S
Myrtle Beach   PTSUNNY   79  72  79 S13       30.10S
N Myrtle Beach FAIR      78  72  81 S14       30.08F

$$

GAZ063-065-086>088-099>101-113>116-118-119-134>141-150-222300-
...Southeast Georgia...

CITY           SKY/WX    TMP DP  RH WIND       PRES   REMARKS
Savannah Arpt  PTSUNNY   81  70  69 S13       30.07S
Hunter AAF     PTSUNNY   80  71  75 SE10      30.05
Fort Stewart   PTSUNNY   82  70  65 SE12      30.03F
Statesboro     FAIR      82  73  74 SE7       30.04F
Sylvania       FAIR      77  75  93 CALM      30.06F
Claxton        FAIR      83  70  64 SE6       30.04F

...CSRA, Central and far Southeast Georgia...

CITY           SKY/WX    TMP DP  RH WIND       PRES   REMARKS
Thomson        CLOUDY    71  70  95 CALM      30.12R
Augusta-Bush   FAIR      78  70  76 SE9       30.04R
Augusta-Daniel FAIR      79  70  74 SE9       30.05S
Swainsboro     TSTM      79  73  83 NW5       30.06R
Vidalia        LGT RAIN  79  70  73 CALM      30.04S
Eastman        MOCLDY    85  60  42 S9        30.04F
Hazlehurst       N/A     79  70  73 CALM      30.03R
Alma           FAIR      81  69  67 SE6       30.03S
Waycross       FAIR      81  70  68 S7        30.04R HAZE
Jesup          NOT AVBL
Baxley         FAIR      79  72  78 SE7       30.03S
Brunswick      FAIR      79  70  73 S13       30.06F
Saint Simons   FAIR      79  73  82 SE12      30.06F

$$

SCZ027-028-034-036>038-045-046-048>050-GAZ119-141-222300-
...Lake and Supplemental Coastal Observations...

STATION/POSITION TIME  TEMP    WIND        PRES    WAVE   SWELL
                       AIR SEA DIR/SP/G            HT/PER HT/PER/DIR
                 (UTC) (F)     (DEG/KT/KT) (MB)    (FT/S) (FT/S/D)
Winyah Bay       2145   79     200/ 10     1019.0S
Lake Murray      NOT AVBL
ACE Basin NERRS  2145   81     140/  3     1019.0S
Fort Pulaski     2200          160/  8/ 12 1018.9
Sapelo Island    2200   80     150/  9     1018.0

$$

ANZ835-935-AMZ111-154-330-350-352-354-370-450-454-472-222300-
...C-MAN and Buoy Observations...

STATION/POSITION TIME  TEMP    WIND        PRES    WAVE   SWELL
                       AIR SEA DIR/SP/G            HT/PER HT/PER/DIR
                 (UTC) (F)     (DEG/KT/KT) (MB)    (FT/S) (FT/S/D)
Buoy 41004       2200      75  200/ 10/ 12 1019.0
Buoy 41008       2050   75 75  130/ 10/ 12 1018.3    3/10   3/120/10
Folly Beach CMAN 2200   77     200/ 10/ 11 1019.6F
Capers Nearshore 2208   77 79  220/ 10/ 14 1019.6F
Fripp Nearshore  2208   76 78  180/ 10/ 14 1018.4F


STATION/POSITION TIME  TEMP    WIND        PRES    WAVE   SWELL
                       AIR SEA DIR/SP/G            HT/PER HT/PER/DIR
                 (UTC) (F)     (DEG/KT/KT) (MB)    (FT/S) (FT/S/D)
5E St. Marys GA  2200      76                N/A     3/10
Frying Pan Buoy  2210   77 76  180/ 12/ 14 1019.4
Buoy 41025       2210   76 74  230/ 14/ 16 1019.4
Cape Lookout NC  2200          210/  9/ 12 1019.5F
Buoy 41002       2210      78  180/ 10/ 12 1020.7
Buoy 41010       2210   77 78  120/ 12/ 16 1019.8
St Augustine FL  2200   77 78  150/ 16/ 17 1018.2F


$$




USA.gov is the U.S. government's official web portal to all federal, state and local government web resources and services.